Showing default

CE-SAT IIB, 46818

Orbit data source: Space-Track

CE-SAT IIB, 46818 is a payload satellite owned by Canon STL (JP) in SSO that was launched on Wed, 28 Oct 2020 UTC via an ELECTRON launch vehicle from the Rocket Lab Launch Complex (RLLC). Payload-class satellites include a variety of spacecraft equipped with specific instruments for various scientific and technological missions. These include communications satellites like Starlink; space stations such as the ISS; scientific satellites like the Hubble; Earth observation satellites from companies like Planet Labs, Umbra, and HawkEye 360; GPS; miniature CubeSats for education and research; and military/defense satellites.

Loading next visibility...
Identifier
46818, 2020-077F
Orbit
SSO
Country
Flag of JPJP / JPN
Related business
Manufacturer
Canon STL
Mission
Operational Commercial Imaging
Bus & Motor
CE-SAT, Unknown motor
Mass
35 kg wet, 35 kg dry
Launch date (UTC)
2020-10-28 (5 years ago)
Launch vehicle
ELECTRON
Launch site
Rocket Lab Launch Complex (RLLC)
Object type
Payload
Rocket body
Debris
Shape & HBR
Box, Unknown HBR
Radar Cross Section
0.575 m², Medium (>0.1 m² and < 1m²)

Expand to show TLE details & history
Last TLE update: 9 hours ago

TLE from 9 hours ago
0 CE-SAT IIB
1 46818U 20077F   25258.64467127  .00048482  00000-0  59513-3 0  9994
2 46818  97.2480 325.0549 0006195 121.2971 238.8894 15.60149513272043
Epoch: 2025-09-15T15:28Z
TLE epoch observation values (Epoch: 2025-09-15T15:28:19.597Z)
Latitude
Longitude
98.12688°
Altitude
392.542 km
Speed
7.673 km/s
True Right ascension
21h 40m 13s
True Declination
0° 00' 00"
Sunlit
Object was in full shadow at epoch
Visualization orbit readout
Latitude
Unknown
Longitude
Unknown
Altitude
Unknown
Speed
Unknown
Apparent Right ascension
Unknown
Apparent Declination
Unknown
Sunlit
N/A
Visualization observer readout
Local Sidereal Time
17:02:28
Azimuth
Unknown
Elevation
Unknown
Doppler factor
Unknown
Orbital elements
Apogee altitude
388.32 km
Perigee altitude
379.941 km
Semi-major axis
6,762.268 km
Eccentricity
0.00062
Inclination
97.248°
RAAN
325.0549°
Arg. of periapsis
121.2971°
True anomaly
238.82865°
Mean anomaly
238.8894°
Eccentric anomaly
238.85902°
Mean motion
3.90305 °/min
Orbital period
92.24 mins
BSTAR
0.00059513
Loading maneuver chart data...
Computing Atmospheric mass density...
Loading historical data...
Loading historical data...
Loading historical data...
Loading historical data...
Loading historical data...
Loading historical data...
Loading historical data...

Documentation

Showing up to 5 results
|